Weather History for Grazzanise, Italy

Change the Weather History Date:

Saturday, July 6, 2013

  Actual Average (LIRN) Record (LIRN)
Temperature  
Mean Temperature 76 °F -  
Max Temperature 91 °F 85 °F 91 °F (2000)
Min Temperature 62 °F 63 °F 62 °F (2007)
Cooling Degree Days 12    
Growing Degree Days 26 (Base 50)    
Moisture  
Dew Point 64 °F    
Average Humidity 67    
Maximum Humidity 95    
Minimum Humidity 27    
Precipitation  
Precipitation 0.00 in 0.03 in - ()
Sea Level Pressure  
Sea Level Pressure 30.04 in    
Wind  
Wind Speed 4 mph ()    
Max Wind Speed 13 mph    
Max Gust Speed -    
Visibility 10.2 miles    
Events Rain    
Averages and records for this station are not official NWS values.
T = Trace of Precipitation, MM = Missing Value Source: Averaged Metar Reports

Daily Weather History Graph

Daily Weather History Graph

Search for Another Location

Airport:

Trip Planner

Search our weather history database for the weather conditions in past years. The results will help you decide how hot, cold, wet, or windy it might be!

Date:

Astronomy

Jul. 06, 2013 Rise Set
Actual Time 5:37 AM CEST 8:38 PM CEST
Civil Twilight 5:04 AM CEST 9:11 PM CEST
Nautical Twilight 4:22 AM CEST 9:54 PM CEST
Astronomical Twilight 3:32 AM CEST 10:43 PM CEST
Moon 4:10 AM CEST (7/6) 7:06 PM CEST (7/6)
Length of Visible Light 16h 07m
Length of Day
15h 00m
Waning Crescent, 3% of the Moon is Illuminated
Jul 6
Waning Crescent
Jul 8
New
Jul 16
First Quarter
Jul 22
Full
Jul 29
Last Quarter

Hourly Weather History & Observations

Time (CEST) Temp. Heat Index Dew Point Humidity Pressure Visibility Wind Dir Wind Speed Gust Speed Precip Events Conditions
12:55 AM 66.2 °F - 59.0 °F 78% 30.06 in - North 3.5 mph - N/A   Clear
1:55 AM 66.2 °F - 59.0 °F 78% 30.04 in - North 3.5 mph - N/A   Clear
2:00 AM 66 °F - 58 °F 70% 30.05 in 19 mi North 3.5 mph - -  
2:55 AM 64.4 °F - 59.0 °F 83% 30.04 in - ENE 5.8 mph - N/A   Clear
3:55 AM 62.6 °F - 59.0 °F 88% 30.04 in - East 4.6 mph - N/A   Clear
4:55 AM 62.6 °F - 60.8 °F 94% 30.04 in - South 2.3 mph - N/A   Clear
5:00 AM 63 °F - 61 °F 90% 30.04 in 19 mi South 2.3 mph - -  
5:55 AM 62.6 °F - 60.8 °F 94% 30.04 in - South 2.3 mph - N/A   Clear
6:55 AM 66.2 °F - 64.4 °F 94% 30.04 in - ENE 3.5 mph - N/A   Clear
7:55 AM 71.6 °F - 64.4 °F 78% 30.04 in - NE 3.5 mph - N/A   Clear
8:00 AM 71 °F - 65 °F 75% 30.04 in 19 mi NE 3.5 mph - -  
8:55 AM 80.6 °F 81.8 °F 62.6 °F 54% 30.06 in - ENE 4.6 mph - N/A   Clear
9:55 AM 84.2 °F 84.4 °F 60.8 °F 45% 30.06 in - NNE 4.6 mph - N/A   Clear
10:55 AM 86.0 °F 86.1 °F 60.8 °F 43% 30.04 in - NNE 4.6 mph - N/A   Clear
11:00 AM 86 °F - 61 °F 33% 30.06 in 19 mi NNE 4.6 mph - -  
11:55 AM 89.6 °F 90.1 °F 62.6 °F 40% 30.04 in 6.2 mi ENE 4.6 mph - N/A   Partly Cloudy
12:55 PM 91.4 °F 92.1 °F 62.6 °F 38% 30.04 in 6.2 mi NNE 8.1 mph - N/A   Partly Cloudy
1:55 PM 89.6 °F 89.5 °F 60.8 °F 38% 30.04 in 6.2 mi East 5.8 mph - N/A   Scattered Clouds
2:00 PM 90 °F - 60 °F 27% 30.04 in 19 mi East 5.8 mph - -  
2:55 PM 87.8 °F 91.4 °F 68.0 °F 52% 30.01 in 6.2 mi West 12.7 mph - N/A   Scattered Clouds
3:55 PM 86.0 °F 89.4 °F 68.0 °F 55% 30.01 in 6.2 mi WNW 12.7 mph - N/A   Mostly Cloudy
4:55 PM 86.0 °F 87.3 °F 64.4 °F 48% 30.01 in 6.2 mi NNW 6.9 mph - N/A   Mostly Cloudy
5:00 PM 86 °F - 64 °F 37% 30.03 in 9 mi NNW 6.9 mph - -   Scattered Clouds
5:55 PM 82.4 °F 85.4 °F 68.0 °F 62% 30.04 in 6.2 mi WNW 8.1 mph - N/A Rain Light Rain
6:55 PM 82.4 °F 86.3 °F 69.8 °F 66% 30.01 in 6.2 mi North 6.9 mph - N/A   Mostly Cloudy
7:55 PM 78.8 °F - 69.8 °F 74% 30.01 in 6.2 mi North 4.6 mph - N/A   Partly Cloudy
8:00 PM 79 °F - 70 °F 68% 30.03 in 9 mi North 4.6 mph - -  
8:55 PM 77.0 °F - 69.8 °F 78% 30.01 in 6.2 mi NNE 4.6 mph - N/A   Partly Cloudy
9:55 PM 75.2 °F - 71.6 °F 89% 30.04 in - NE 4.6 mph - N/A   Clear
10:55 PM 73.4 °F - 71.6 °F 94% 30.04 in - NNE 3.5 mph - N/A   Clear
11:00 PM 73 °F - 72 °F 95% 30.05 in 9 mi NNE 3.5 mph - -  
11:55 PM 71.6 °F - 69.8 °F 94% 30.04 in - NE 3.5 mph - N/A   Clear